Probability
100 100 100 100 0 0 0 0 0 0 0 0 0 0 0 0 0 0 3 0 0 0 16 100 100 100 100 100 100 100 100 100 100 97 94 94 94 94 100 94 87 74 81 87 87 94 94 97 100
100 100 100 3 0 0 0 0 0 0 0 0 0 0 0 0 0 0 0 0 0 0 23 97 100 100 100 100 97 97 100 100 100 100 97 94 100 97 100 94 87 74 77 84 87 94 94 97 100
100 100 55 0 0 0 0 0 0 0 0 0 0 0 0 0 0 0 0 0 0 0 19 97 100 100 100 100 100 100 100 100 100 100 97 90 100 97 100 100 90 74 65 68 77 97 97 97 100
100 90 0 0 0 0 0 0 0 0 0 0 0 0 0 0 0 0 0 0 0 0 13 97 100 100 100 100 100 100 100 100 100 100 97 100 100 94 94 100 77 45 19 29 68 90 97 97 100
90 26 0 0 0 0 0 0 0 0 0 0 0 0 0 0 0 0 3 6 0 0 13 81 100 100 100 100 100 100 100 100 100 100 100 100 100 97 97 90 52 16 10 35 65 90 94 97 100
87 0 0 0 0 0 0 0 0 0 0 0 0 0 0 0 0 0 6 10 0 0 16 58 100 100 100 100 100 100 100 100 100 100 100 100 100 100 97 84 26 6 16 55 87 90 97 100 97
77 0 0 0 0 0 0 0 0 0 0 0 0 0 0 0 0 0 0 0 3 0 0 39 94 94 100 100 100 100 100 100 100 100 100 100 100 100 97 52 13 10 35 58 90 97 100 94 84
58 0 0 0 0 0 0 0 0 0 0 0 0 0 0 0 0 3 0 0 0 3 0 10 77 90 81 87 100 100 100 100 100 100 100 100 100 97 81 13 13 23 42 74 94 100 97 77 48
29 0 0 0 0 0 0 0 0 0 0 0 0 0 0 0 0 0 0 0 16 10 6 6 26 52 90 90 97 100 100 100 100 100 100 100 74 39 29 6 42 39 48 55 90 97 71 39 26
68 0 0 0 0 0 0 0 0 0 0 0 0 0 0 0 0 0 0 0 13 13 10 3 3 32 71 77 100 100 97 100 87 77 58 26 13 6 0 3 29 35 35 32 65 68 26 0 0
29 0 0 0 0 0 0 0 0 0 0 0 0 0 0 3 0 0 0 0 0 10 32 3 0 6 32 100 100 100 100 100 65 10 16 6 6 6 3 3 19 23 3 0 26 3 0 0 0
0 0 0 0 0 0 0 0 0 0 0 0 0 0 0 3 0 6 0 0 0 3 29 16 0 3 6 55 94 84 84 90 77 23 3 3 0 0 0 3 3 6 0 0 0 3 0 0 0
0 0 0 0 0 0 0 0 0 0 0 0 0 0 0 0 0 0 0 0 3 6 45 29 16 6 3 26 87 52 45 32 32 77 13 0 0 0 0 0 13 0 0 0 0 0 0 0 0
0 0 0 0 0 0 0 0 0 0 0 0 0 0 0 0 0 0 0 0 3 10 48 77 55 29 10 48 90 61 52 81 32 48 16 0 0 0 0 0 3 0 0 0 0 0 0 0 0
0 0 0 0 0 0 0 0 0 0 0 0 0 0 0 0 0 0 0 0 3 26 61 90 97 94 71 39 52 65 71 61 58 65 16 3 0 0 0 0 0 0 0 0 0 0 0 0 0
0 0 0 0 0 0 0 0 0 0 0 0 0 0 0 0 0 0 0 0 3 29 65 90 100 97 97 94 94 94 81 68 90 74 29 3 0 0 0 0 0 0 0 0 0 0 0 0 0
0 0 0 0 0 0 0 0 0 0 0 0 0 0 0 0 0 3 3 0 10 48 77 87 100 100 100 97 90 87 84 100 97 74 71 23 0 0 0 0 0 0 0 0 0 0 0 0 0
0 0 0 0 0 0 0 0 0 0 0 0 0 0 0 0 0 0 13 16 26 52 65 87 94 100 100 100 94 81 87 81 90 87 97 45 16 0 0 10 0 0 19 29 16 3 10 6 3
0 0 0 0 0 0 0 0 0 0 0 0 0 0 0 0 0 0 13 16 26 32 52 65 74 90 100 100 100 90 71 90 87 90 87 90 65 19 10 19 10 29 42 65 16 45 13 10 3
0 0 0 0 0 0 0 0 0 0 0 0 0 0 0 0 0 0 26 35 32 39 61 71 100 100 100 100 100 100 97 90 84 94 97 84 77 45 10 16 19 55 94 84 61 61 45 6 0
0 0 0 0 0 0 0 0 0 0 0 0 0 0 0 0 0 0 10 16 26 29 58 45 100 100 100 100 100 97 100 90 94 97 94 90 74 48 48 13 19 61 74 87 84 74 55 13 0
0 0 0 0 0 0 0 0 0 0 0 0 0 0 0 0 0 3 6 10 16 32 55 71 90 94 90 100 100 100 100 94 90 90 97 94 81 58 42 32 32 45 58 61 77 55 68 52 19
0 0 0 0 0 0 0 0 0 0 0 0 0 0 0 0 0 3 3 6 13 29 45 55 68 68 74 77 97 94 90 90 71 77 77 77 74 65 65 58 32 19 16 35 42 39 48 48 39
0 0 0 0 0 0 0 0 0 0 0 0 0 0 0 0 0 3 0 16 23 35 48 48 65 68 65 68 84 74 81 84 65 71 68 77 74 68 55 48 35 29 13 3 23 23 26 35 26
0 0 0 0 0 0 0 0 0 0 0 0 0 0 0 3 3 6 3 16 26 45 61 61 61 65 65 45 42 45 55 55 55 61 71 65 58 45 29 26 29 35 13 0 0 3 13 6 6
0 0 0 0 0 0 0 0 0 0 0 0 0 0 0 10 10 23 13 26 42 61 68 71 61 65 58 48 26 16 29 52 48 61 55 48 45 32 29 26 26 16 10 0 0 3 0 0 3
0 0 0 0 0 0 0 0 0 0 0 0 0 0 6 13 19 26 32 32 77 94 97 90 81 74 65 61 45 29 23 42 45 52 39 45 35 23 23 16 13 10 3 0 0 0 0 0 3
0 0 0 0 0 0 0 0 0 0 0 0 0 0 0 6 3 23 23 29 84 94 97 97 90 84 81 61 45 35 48 68 68 55 48 39 32 23 29 19 6 3 3 3 0 0 0 0 0
0 0 0 0 0 0 0 0 0 0 0 0 0 0 0 0 3 3 29 32 65 94 97 97 97 90 81 71 65 45 48 61 68 65 61 55 42 39 26 13 6 0 3 3 0 0 0 0 0
0 0 0 0 0 0 0 0 0 0 0 0 0 0 0 0 0 0 3 13 45 90 94 97 97 94 90 87 81 65 68 68 58 52 61 61 42 35 19 13 6 0 3 0 0 0 0 0 0
Height
5905 5906 5907 5907 5908 5907 5907 5907 5906 5905 5904 5904 5904 5903 5903 5903 5903 5905 5902 5900 5900 5900 5899 5897 5896 5894 5892 5890 5889 5887 5886 5885 5883 5882 5881 5880 5880 5879 5877 5876 5876 5875 5874 5873 5872 5873 5875 5877 5880
5906 5906 5908 5908 5908 5907 5907 5906 5905 5905 5904 5903 5903 5902 5902 5901 5900 5900 5899 5899 5899 5899 5898 5897 5896 5894 5892 5890 5889 5887 5885 5884 5883 5882 5881 5880 5879 5878 5877 5876 5876 5875 5874 5874 5874 5874 5875 5877 5879
5906 5907 5908 5908 5908 5908 5908 5906 5905 5904 5903 5902 5902 5901 5900 5900 5899 5898 5898 5898 5898 5898 5898 5897 5895 5893 5892 5890 5888 5886 5885 5883 5882 5881 5880 5879 5879 5878 5877 5876 5875 5875 5874 5874 5875 5875 5876 5877 5879
5907 5908 5909 5909 5908 5908 5907 5906 5905 5903 5902 5901 5900 5899 5898 5898 5897 5897 5897 5897 5897 5897 5897 5896 5894 5893 5891 5889 5887 5886 5884 5882 5881 5880 5879 5878 5877 5877 5876 5875 5875 5874 5874 5874 5875 5876 5877 5878 5879
5906 5907 5908 5908 5908 5908 5907 5906 5904 5903 5901 5900 5899 5898 5897 5896 5895 5895 5895 5895 5896 5896 5896 5895 5893 5892 5890 5888 5886 5885 5883 5882 5880 5879 5878 5877 5876 5876 5875 5874 5874 5873 5874 5874 5875 5876 5877 5878 5879
5906 5907 5908 5908 5908 5908 5907 5905 5904 5902 5901 5899 5898 5896 5895 5894 5894 5894 5894 5894 5894 5895 5894 5894 5892 5891 5889 5887 5886 5884 5882 5880 5879 5877 5876 5875 5875 5874 5874 5873 5872 5872 5872 5873 5874 5875 5876 5877 5878
5906 5906 5906 5907 5907 5907 5906 5905 5903 5902 5900 5898 5897 5895 5894 5892 5892 5892 5892 5892 5893 5893 5893 5892 5891 5889 5888 5886 5885 5883 5881 5879 5877 5875 5874 5873 5873 5873 5872 5871 5870 5870 5870 5871 5872 5873 5875 5876 5877
5904 5905 5905 5906 5906 5906 5905 5904 5902 5901 5899 5898 5896 5894 5893 5892 5890 5890 5890 5891 5891 5892 5891 5891 5889 5888 5886 5885 5883 5881 5879 5877 5875 5873 5872 5871 5871 5870 5870 5869 5868 5868 5868 5869 5870 5871 5872 5874 5875
5902 5904 5903 5904 5904 5904 5904 5902 5901 5900 5899 5897 5895 5893 5892 5890 5889 5889 5889 5889 5890 5890 5890 5889 5888 5886 5885 5883 5882 5880 5877 5875 5873 5871 5870 5869 5868 5868 5868 5867 5866 5866 5866 5867 5868 5869 5870 5871 5873
5900 5901 5901 5902 5902 5902 5901 5901 5900 5898 5897 5896 5894 5892 5890 5889 5889 5888 5888 5888 5889 5889 5888 5887 5886 5885 5883 5882 5880 5878 5875 5873 5871 5869 5868 5867 5866 5865 5865 5864 5864 5864 5864 5865 5865 5866 5867 5869 5870
5897 5898 5898 5899 5899 5899 5899 5898 5897 5897 5895 5894 5892 5890 5889 5888 5888 5887 5887 5887 5887 5887 5886 5885 5884 5883 5882 5880 5878 5876 5873 5871 5869 5867 5865 5865 5864 5863 5862 5862 5861 5862 5862 5863 5863 5864 5865 5866 5867
5894 5895 5895 5896 5896 5896 5896 5895 5895 5894 5893 5892 5891 5889 5887 5886 5886 5885 5885 5885 5885 5885 5884 5883 5882 5881 5879 5878 5876 5873 5871 5869 5866 5864 5863 5862 5861 5860 5859 5859 5859 5859 5860 5861 5861 5862 5863 5864 5865
5891 5892 5893 5893 5893 5893 5894 5893 5892 5891 5890 5889 5888 5887 5885 5884 5883 5883 5883 5882 5882 5882 5881 5881 5880 5878 5877 5875 5873 5871 5868 5866 5864 5862 5860 5859 5859 5858 5857 5856 5857 5857 5858 5859 5859 5860 5861 5861 5862
5888 5889 5889 5889 5890 5890 5891 5890 5889 5888 5887 5886 5885 5884 5883 5882 5881 5880 5880 5879 5879 5878 5878 5878 5877 5875 5874 5872 5870 5867 5865 5863 5861 5859 5858 5856 5856 5855 5854 5854 5854 5855 5855 5856 5857 5858 5859 5859 5860
5884 5885 5885 5886 5886 5887 5888 5888 5886 5885 5884 5882 5881 5881 5880 5879 5878 5877 5876 5876 5875 5875 5874 5874 5873 5872 5870 5868 5866 5864 5862 5860 5858 5856 5855 5854 5853 5852 5852 5851 5851 5852 5853 5854 5855 5856 5856 5857 5858
5879 5881 5881 5882 5882 5883 5885 5885 5882 5881 5880 5879 5878 5877 5876 5876 5875 5874 5873 5873 5872 5871 5871 5870 5869 5868 5866 5864 5862 5860 5859 5857 5855 5854 5852 5851 5850 5849 5849 5848 5848 5849 5850 5851 5852 5854 5855 5855 5856
5874 5876 5876 5877 5877 5878 5879 5880 5878 5877 5876 5875 5874 5873 5872 5872 5871 5870 5870 5869 5869 5868 5867 5866 5865 5864 5862 5860 5859 5857 5855 5854 5853 5851 5849 5848 5847 5846 5846 5845 5845 5846 5847 5848 5850 5851 5852 5853 5854
5868 5869 5870 5870 5870 5872 5872 5873 5873 5872 5871 5870 5870 5869 5868 5868 5868 5867 5866 5865 5864 5863 5862 5861 5860 5859 5858 5856 5855 5854 5852 5851 5850 5848 5846 5845 5844 5843 5843 5842 5842 5843 5844 5845 5846 5848 5850 5851 5851
5860 5862 5863 5863 5863 5865 5865 5866 5867 5866 5866 5865 5864 5864 5864 5863 5863 5862 5861 5861 5860 5859 5858 5856 5855 5854 5853 5852 5850 5850 5848 5847 5846 5844 5843 5842 5840 5839 5839 5839 5839 5840 5840 5841 5843 5844 5846 5847 5849
5853 5854 5855 5855 5855 5857 5858 5859 5860 5860 5859 5859 5858 5858 5858 5858 5858 5858 5857 5856 5855 5854 5853 5852 5850 5849 5848 5847 5845 5845 5843 5842 5841 5839 5838 5837 5836 5835 5835 5836 5836 5836 5837 5837 5838 5840 5842 5844 5845
5845 5846 5846 5847 5847 5849 5851 5853 5853 5853 5852 5852 5852 5852 5853 5853 5853 5852 5852 5851 5850 5849 5848 5846 5845 5843 5842 5841 5840 5838 5837 5836 5835 5834 5833 5832 5831 5830 5830 5831 5831 5832 5832 5833 5834 5836 5838 5840 5842
5837 5837 5838 5839 5841 5842 5844 5844 5846 5845 5845 5845 5845 5846 5847 5847 5847 5847 5846 5845 5845 5844 5842 5841 5839 5837 5836 5835 5833 5832 5830 5829 5828 5827 5826 5825 5825 5825 5824 5824 5825 5826 5827 5828 5829 5831 5833 5836 5838
5830 5830 5831 5832 5833 5835 5836 5837 5839 5838 5838 5838 5839 5840 5841 5841 5841 5841 5840 5840 5839 5838 5836 5835 5833 5831 5830 5828 5826 5825 5823 5821 5820 5819 5818 5818 5818 5818 5818 5819 5819 5820 5821 5822 5823 5825 5828 5830 5833
5824 5824 5824 5825 5825 5828 5828 5829 5831 5831 5831 5831 5832 5833 5834 5835 5835 5835 5834 5834 5833 5832 5830 5829 5827 5825 5823 5821 5819 5817 5815 5814 5812 5811 5810 5810 5810 5811 5812 5812 5813 5813 5814 5815 5816 5818 5821 5824 5827
5818 5819 5819 5819 5820 5821 5821 5822 5823 5823 5824 5825 5826 5826 5827 5828 5829 5829 5828 5828 5827 5826 5825 5823 5821 5819 5817 5815 5812 5810 5808 5806 5805 5804 5803 5803 5803 5804 5805 5806 5806 5806 5807 5807 5808 5811 5814 5817 5820
5810 5812 5814 5815 5815 5815 5814 5816 5817 5816 5817 5819 5820 5821 5821 5822 5823 5823 5823 5822 5821 5820 5819 5817 5815 5813 5811 5809 5806 5804 5802 5800 5799 5798 5797 5797 5797 5798 5799 5799 5800 5800 5800 5800 5800 5803 5806 5810 5813
5804 5805 5807 5809 5809 5810 5810 5811 5812 5811 5812 5813 5814 5815 5816 5816 5816 5817 5817 5816 5815 5814 5813 5812 5810 5807 5805 5802 5800 5798 5797 5795 5794 5793 5792 5792 5792 5793 5793 5793 5794 5793 5794 5794 5795 5796 5799 5803 5806
5798 5799 5800 5801 5803 5804 5805 5806 5807 5807 5808 5808 5809 5809 5810 5810 5810 5810 5810 5810 5809 5808 5807 5806 5804 5802 5799 5797 5795 5793 5792 5790 5789 5789 5788 5788 5788 5788 5788 5789 5789 5789 5789 5789 5790 5790 5792 5796 5800
5790 5792 5792 5795 5797 5799 5800 5802 5800 5801 5802 5802 5803 5803 5804 5804 5804 5804 5804 5804 5803 5802 5801 5800 5798 5796 5794 5791 5789 5788 5787 5786 5786 5785 5784 5784 5784 5783 5784 5784 5784 5784 5784 5784 5784 5785 5786 5789 5792
5782 5783 5785 5788 5789 5790 5792 5797 5793 5795 5795 5796 5796 5797 5797 5798 5798 5798 5798 5798 5797 5796 5795 5794 5793 5791 5789 5786 5784 5783 5782 5781 5781 5780 5780 5779 5779 5779 5779 5779 5779 5779 5780 5780 5780 5780 5781 5783 5786
Wind_Speed
4 5 6 6 7 7 7 7 6 5 2 2 3 4 5 6 7 7 5 5 2 1 3 5 7 8 9 10 11 10 7 6 6 6 6 6 7 6 5 4 4 4 4 4 1 9 14 17 18
6 6 6 6 6 6 6 7 6 5 4 1 1 2 3 4 5 5 5 6 4 1 2 4 7 8 9 10 10 11 9 6 7 7 8 7 6 6 5 4 3 3 2 2 1 6 10 14 15
7 7 7 6 6 5 5 6 7 6 6 4 3 3 3 3 3 5 6 7 5 3 3 4 7 9 10 10 10 10 9 7 7 8 9 8 6 5 4 3 3 3 3 1 2 4 7 9 11
8 8 7 7 6 6 6 7 7 8 7 7 6 5 4 4 3 5 7 7 5 4 3 4 7 10 11 11 10 10 11 9 8 9 10 9 7 5 4 4 3 4 5 5 4 4 6 7 8
8 8 7 6 5 5 7 8 9 10 9 8 8 7 6 5 5 6 7 7 5 4 2 4 7 10 12 12 11 10 11 11 10 9 10 9 8 6 6 5 6 6 7 7 7 7 6 7 7
9 9 7 5 4 4 6 7 8 10 10 10 10 9 8 7 6 6 7 7 6 3 2 4 8 10 11 12 11 11 12 12 12 10 10 9 8 7 7 8 8 8 8 9 9 10 9 8 8
9 8 5 2 1 4 6 7 7 9 10 11 11 10 9 8 6 6 6 7 6 4 2 4 7 9 11 11 11 11 12 13 13 11 10 10 8 7 8 9 10 10 10 10 11 11 12 11 10
9 7 5 3 3 4 6 8 8 10 11 12 12 12 10 8 5 4 5 6 6 5 3 5 7 9 11 12 11 11 12 14 14 12 11 10 9 9 10 10 11 10 10 11 11 12 13 13 13
10 8 7 6 6 5 6 8 10 10 12 12 12 12 11 9 6 3 4 5 5 5 3 5 7 9 11 12 12 12 13 15 15 14 13 12 10 10 11 12 12 11 10 11 11 11 12 13 14
12 10 9 8 8 8 7 8 11 12 13 13 13 12 11 9 6 3 3 4 5 4 5 6 8 9 11 12 13 13 14 15 15 15 15 13 11 11 12 13 13 12 10 10 11 11 12 13 14
14 12 11 11 11 11 10 10 12 14 15 14 14 14 12 9 7 5 4 5 5 6 7 8 9 10 11 13 14 14 15 15 15 15 16 14 12 12 13 14 14 12 11 10 11 11 11 12 13
17 15 14 13 13 13 13 13 15 17 17 17 16 15 13 10 9 8 8 8 8 9 9 10 10 11 11 12 14 15 15 15 14 14 15 14 12 12 12 14 14 13 11 11 11 10 10 11 12
19 18 17 16 15 15 15 15 17 20 20 20 18 17 15 13 11 11 12 12 12 12 12 13 12 13 13 13 14 15 15 15 15 14 13 13 13 12 12 13 14 13 11 11 11 11 10 10 11
22 21 20 19 18 17 17 17 19 22 22 22 20 18 17 15 14 14 14 15 15 16 16 16 15 15 15 14 15 15 15 15 15 14 13 13 13 12 12 13 14 14 13 12 12 11 10 10 10
24 24 23 22 21 20 19 18 21 23 23 23 21 20 19 17 16 15 16 17 18 19 19 18 18 17 17 17 17 17 16 16 15 14 13 13 13 12 13 13 14 14 14 13 13 12 11 10 10
27 26 26 25 25 24 22 20 22 23 24 23 22 21 21 20 18 17 18 19 19 20 21 20 20 19 19 18 18 18 17 16 15 14 13 13 13 13 13 14 15 15 15 14 14 13 12 11 10
31 30 29 28 28 27 26 24 25 25 24 23 22 22 23 22 21 20 19 20 21 21 22 22 21 21 21 20 19 18 17 16 15 15 15 15 14 13 14 15 15 16 15 15 14 14 13 12 11
35 34 33 32 32 30 29 28 27 26 25 24 23 23 24 23 22 21 21 21 21 21 22 22 22 23 23 21 19 18 18 19 18 18 17 16 15 14 14 14 16 16 16 16 16 16 15 14 12
39 38 36 36 35 33 32 30 28 27 26 26 25 24 25 25 23 22 22 22 22 21 22 23 24 24 24 23 20 19 19 21 22 21 19 18 17 16 15 14 15 16 17 17 17 18 17 16 14
40 39 38 37 36 35 33 31 29 28 27 27 27 25 25 25 25 24 23 23 22 22 23 24 24 25 25 24 23 22 22 23 24 23 22 22 20 19 18 16 16 16 18 19 20 20 19 18 17
38 37 36 36 34 33 31 29 29 28 29 29 28 27 26 25 25 24 24 23 23 23 25 25 25 26 26 26 26 26 25 26 26 26 26 25 24 22 21 19 19 19 20 21 23 22 22 21 20
34 34 34 33 32 32 31 30 28 27 28 29 29 28 26 25 25 26 26 25 25 25 25 25 25 27 28 28 28 28 29 29 29 29 28 27 26 25 24 23 22 23 23 24 26 26 26 24 23
29 30 31 31 31 31 30 29 26 25 26 27 28 28 27 25 25 26 26 26 26 26 26 26 27 28 29 29 29 30 30 31 31 30 30 29 29 28 26 25 25 26 28 28 28 29 29 28 26
28 28 29 28 28 28 27 27 27 25 25 25 26 26 26 24 24 24 25 26 26 27 27 27 27 27 28 29 30 30 31 31 31 29 29 28 28 28 27 27 27 27 28 30 31 30 30 31 29
27 27 26 26 25 25 26 26 26 26 23 22 22 23 22 22 22 23 24 25 26 27 27 27 27 27 27 28 29 29 29 28 28 27 26 26 26 26 26 26 27 27 28 30 30 31 32 33 33
27 26 26 25 24 24 24 23 21 21 21 19 18 19 20 21 22 23 24 25 26 27 26 25 26 26 27 27 26 25 24 24 24 24 23 22 22 22 22 23 24 24 24 26 28 31 34 34 35
27 27 27 26 26 26 25 23 19 18 18 18 18 19 20 22 23 24 24 25 25 25 25 24 24 25 26 25 24 22 21 20 20 20 19 18 18 18 18 19 20 21 22 22 24 29 32 35 35
26 27 27 26 26 27 27 25 20 18 17 18 19 20 21 22 22 22 22 22 22 23 23 23 23 23 24 24 23 21 20 19 18 17 16 16 16 17 17 17 18 19 21 22 23 27 31 34 36
25 26 27 28 28 27 26 24 21 16 16 17 18 19 20 20 21 21 22 22 22 22 22 21 21 22 23 23 22 21 20 19 18 16 16 15 15 16 17 17 17 18 19 20 21 23 28 32 34
26 26 27 28 28 28 28 25 23 21 20 21 21 22 22 22 22 22 22 23 22 22 21 20 21 22 23 22 21 20 20 20 20 19 18 17 17 17 18 18 18 18 19 20 20 21 23 28 32
Wind_Direction
116 104 92 77 57 41 26 20 23 23 32 175 196 220 249 266 270 264 244 208 182 101 50 27 19 15 14 12 8 2 350 331 317 313 321 329 337 339 327 315 317 330 354 14 159 199 197 199 198
130 121 109 86 60 39 17 9 5 3 1 336 231 232 251 268 264 241 220 210 211 230 342 358 359 360 2 2 3 2 354 330 312 308 317 326 333 339 333 316 307 307 333 16 121 187 194 197 200
137 130 118 98 72 48 25 7 355 343 341 333 305 285 275 275 252 228 219 215 219 243 288 325 345 353 354 353 354 359 357 335 313 307 311 318 321 328 332 324 302 273 258 236 161 173 188 190 192
141 134 127 108 84 64 45 24 6 354 341 333 324 310 292 276 255 231 219 211 218 243 290 320 341 354 356 352 345 350 355 346 323 312 312 314 312 308 310 307 289 262 245 229 204 179 176 174 177
145 139 131 115 88 66 50 33 16 3 358 350 339 327 307 284 255 230 216 212 219 232 289 340 350 356 357 352 342 340 346 345 332 318 315 312 307 293 287 286 279 265 250 238 225 210 195 188 185
148 144 133 117 83 51 40 27 15 4 1 0 354 345 325 305 274 242 226 222 218 218 276 339 350 352 353 350 342 337 340 339 331 321 316 312 301 284 275 277 277 270 259 246 236 227 218 208 201
154 152 157 152 42 18 16 7 1 359 358 1 359 356 344 326 297 258 236 225 216 212 267 328 341 345 347 349 344 336 334 334 329 320 313 311 301 282 270 273 275 271 263 253 242 235 229 222 214
171 174 195 231 286 332 356 357 351 350 353 354 355 359 355 345 325 278 241 226 217 217 266 321 334 339 343 346 344 337 331 329 324 317 309 304 295 281 269 271 274 270 264 256 246 239 233 228 223
195 203 222 248 274 300 331 344 345 341 340 344 350 353 352 350 341 299 240 222 217 227 279 320 328 336 341 344 344 339 332 328 322 315 307 299 290 278 269 268 271 269 263 255 247 239 233 230 225
217 226 240 257 274 291 312 330 335 334 332 331 338 344 348 344 337 309 235 223 232 255 293 318 325 333 340 345 344 339 332 326 322 316 309 300 288 275 266 264 266 268 263 253 244 235 232 231 227
229 237 249 263 275 288 303 316 323 329 327 324 327 332 337 333 317 294 268 257 263 277 293 308 315 325 335 343 345 340 330 323 319 313 309 301 291 274 262 259 261 263 260 251 240 232 231 233 231
235 241 250 262 272 284 297 308 313 318 323 320 317 319 323 320 305 290 280 276 279 286 291 297 305 315 324 334 342 340 332 320 313 309 305 299 292 276 260 255 255 258 257 245 236 232 233 235 234
238 243 250 259 268 278 290 300 307 312 318 317 312 309 311 311 300 289 284 282 284 288 289 292 298 305 313 323 333 334 328 320 310 302 298 295 292 278 260 251 250 254 253 243 236 234 234 236 236
241 246 252 258 265 273 283 293 299 305 315 314 308 302 303 306 300 291 286 286 289 290 291 293 297 302 307 316 327 331 325 314 306 297 290 290 290 280 263 250 247 250 250 243 235 231 231 233 232
244 248 253 258 264 269 277 286 293 298 307 309 304 298 297 298 295 290 286 285 288 290 291 292 296 301 306 312 321 326 323 312 299 289 284 285 286 278 268 255 247 247 247 243 237 230 227 226 229
248 251 255 259 263 267 271 279 286 292 299 303 300 293 290 291 290 288 286 286 287 288 289 291 294 298 302 307 311 315 314 304 293 285 284 283 281 274 268 259 251 247 245 243 238 231 222 221 228
250 252 255 258 261 265 268 272 278 283 291 295 293 288 284 286 286 286 286 287 289 288 289 289 290 293 297 301 304 303 300 295 286 282 283 282 277 272 266 259 252 247 243 241 238 230 223 223 228
251 252 253 256 259 262 266 268 271 275 281 285 285 281 279 281 284 286 288 290 291 289 288 288 288 289 291 294 296 293 289 285 278 278 280 281 278 272 263 260 253 246 243 242 237 230 226 226 227
254 254 254 256 259 262 264 266 268 270 273 274 275 274 273 276 281 284 287 288 289 288 287 288 288 288 289 290 290 288 284 280 276 273 272 274 274 270 262 258 253 251 247 244 238 232 228 229 226
257 257 256 257 259 261 264 266 268 268 269 268 267 266 266 270 276 281 284 285 285 285 285 286 287 287 289 290 289 285 280 275 273 271 269 267 267 266 261 259 258 255 251 246 239 234 230 229 224
257 257 258 257 258 263 266 267 268 267 265 262 259 258 261 267 274 280 281 281 282 283 285 287 288 289 290 290 289 286 283 279 275 271 267 265 263 262 259 257 257 255 254 250 242 236 233 231 225
257 257 259 261 260 261 265 267 266 263 260 257 254 254 259 266 273 277 278 279 281 282 286 289 289 290 290 289 288 285 282 279 275 270 267 264 260 256 256 254 257 257 256 256 249 241 236 231 226
262 261 261 262 262 262 264 265 263 259 257 255 253 253 258 265 271 274 275 278 281 285 289 290 291 292 291 289 287 284 281 278 275 272 268 263 259 254 252 252 254 256 256 256 252 246 238 230 226
262 261 261 260 259 259 260 261 261 258 254 254 253 256 260 264 268 271 274 278 283 287 290 292 293 294 292 290 287 284 281 278 275 272 268 264 259 255 253 252 253 256 256 255 251 246 238 230 227
259 259 261 263 263 261 260 259 258 258 258 257 257 259 262 264 267 270 275 280 284 288 290 292 294 294 294 292 289 285 282 279 276 272 268 264 259 256 254 255 255 256 255 254 251 245 242 232 226
257 257 259 262 266 267 262 259 262 263 264 264 262 260 261 263 267 271 277 282 286 289 291 293 296 295 295 294 292 288 284 280 277 272 267 263 259 256 255 256 256 256 257 254 251 245 241 234 229
261 260 259 261 262 264 266 265 266 267 266 266 263 261 261 264 269 275 280 283 286 289 292 295 296 296 295 294 292 289 285 281 278 273 267 262 257 255 255 256 255 255 253 254 254 248 243 237 232
259 260 263 262 262 264 264 265 269 267 263 261 260 261 263 268 273 277 280 283 286 289 292 294 295 295 296 295 290 286 283 279 278 275 269 263 259 256 254 253 256 257 255 256 256 249 245 239 236
257 255 255 258 259 261 265 268 264 262 256 254 256 259 264 268 273 277 281 283 285 287 289 293 295 298 299 297 290 282 278 276 275 276 273 269 264 261 258 256 256 256 255 256 258 252 246 242 239
254 252 251 252 254 256 259 260 261 259 257 255 255 259 263 268 273 278 280 281 281 282 286 290 296 299 299 297 292 283 278 276 275 275 274 272 270 267 264 261 256 254 254 256 254 252 246 242 238